#timestamp,LO_Frequency,Hit,StdDev 
1455325215.5,286047000.1,N
1455325235.3,286046999.9,N
1455325255.1,286047001.7,N
1455325275.9,286047004.0,Y
1455325295.7,286047003.5,P
1455325315.5,286047001.9,N
1455325335.4,286047002.0,N
1455325355.2,286047003.5,N
1455325375.1,286047003.6,N
1455325376.0,286047003.6,N
1455325395.8,286047003.3,N
1455325415.6,286047001.6,N
1455325435.5,286047002.4,N
1455325455.3,286047004.0,Y
1455325475.1,286047001.8,P
1455325495.9,286047004.2,P
1455325515.7,286047003.2,P
1455325535.6,286047004.1,Y
1455325555.4,286047000.8,P
1455325575.2,286046998.1,N
1455325595.1,286047000.0,N
1455325596.0,286047000.0,N
1455325615.8,286047000.1,N
1455325635.6,286047001.0,N
1455325655.5,286046998.4,N
1455325675.3,286047000.3,N
1455325695.2,286046998.1,N
1455325715.9,286047002.8,N
1455325735.7,286047000.2,N
1455325755.6,286046999.9,N
1455325775.4,286047000.9,N
1455325795.3,286047000.9,N
1455325815.1,286047000.7,N
1455325816.0,286047000.7,N
1455325835.8,286047000.8,N
1455325855.7,286047002.4,N
1455325875.5,286047002.0,N
1455325895.3,286047000.0,N
1455325915.2,286047001.1,N
1455325935.0,286046998.3,N
1455325935.9,286046998.3,N
1455325955.8,286046997.0,N
1455325975.6,286046996.5,N
1455325995.4,286046997.0,N
1455326045.3,286046995.3,E
1455326055.2,286046999.9,N
1455326075.1,286047003.9,P
1455326076.0,286047003.9,N
1455326095.8,286047003.0,N
1455326115.6,286047004.1,N
1455326135.5,286047003.3,N
1455326155.3,286047002.9,N
1455326175.2,286047003.2,N
1455326195.9,286047003.1,N
1455326215.7,286047001.5,N
1455326235.6,286047003.9,Y
1455326255.4,286046998.3,P
1455326275.3,286046998.1,N
1455326295.1,286046998.5,N
1455326296.0,286046998.5,N
1455326315.8,286047001.0,N
1455326335.7,286046996.6,N
1455326355.5,286046997.0,N
1455326375.3,286046996.5,N
1455326395.2,286046996.6,N
1455326415.0,286046999.4,N
1455326415.9,286046999.4,N
1455326435.8,286046998.3,N
1455326455.6,286046998.4,N
1455326475.4,286047001.0,N
1455326495.3,286046998.5,N
1455326515.1,286046998.5,N
1455326535.9,286047001.1,N
1455326555.7,286046998.3,N
1455326575.5,286047000.0,N
1455326595.4,286046999.9,N
1455326615.2,286047002.4,N
1455326635.0,286047002.8,N
1455326635.9,286047002.8,N
1455326655.8,286047000.2,N
1455326675.6,286046999.7,N
1455326695.5,286046998.2,N
1455326715.3,286046996.6,N
1455326735.1,286046999.2,N
1455326755.9,286046999.2,N
1455326775.7,286046999.4,N
1455326795.6,286046999.5,N
1455326815.4,286046999.3,N
1455326835.2,286047001.1,N
1455326855.1,286047001.1,N
1455326856.0,286047001.1,N
1455326875.8,286047000.2,N
1455326895.6,286047001.5,N
1455326915.5,286047001.4,N
1455326935.3,286047002.1,N
1455326955.2,286047002.4,N
1455326975.9,286047001.2,N
1455326995.7,286047000.5,N
1455327015.6,286047002.7,N
1455327035.4,286047001.4,N
1455327055.2,286047004.2,N
1455327075.1,286047003.9,N
1455327076.0,286047003.9,N
1455327095.8,286047001.7,N
1455327115.7,286047004.0,N
1455327135.5,286047003.2,N
1455327155.3,286047003.6,N
1455327175.2,286047001.3,N
1455327195.0,286047002.2,N
1455327195.9,286047002.2,N
1455327215.7,286047001.9,N
1455327235.6,286047002.3,N
1455327255.4,286047002.7,N
1455327275.3,286047002.3,N
1455327295.1,286047000.3,N
1455327296.0,286047000.3,N
1455327315.8,286047002.6,N
1455327335.7,286047002.3,N
1455327355.5,286047000.7,N
1455327375.3,286046998.5,N
1455327395.2,286047000.7,N
1455327415.0,286047002.3,N
1455327415.9,286047002.3,N
1455327435.8,286046999.7,N
1455327455.6,286047000.4,N
1455327475.4,286046999.9,N
1455327495.3,286047001.2,N
1455327515.1,286047002.7,N
1455327535.8,286047002.7,N
1455327555.7,286047001.0,N
1455327575.5,286047000.5,N
1455327595.4,286047000.3,N
1455327615.2,286046999.7,N
1455327635.0,286047002.6,N
1455327635.9,286047002.6,N
1455327655.8,286047002.4,N
1455327675.6,286047003.8,Y
1455327695.4,286047001.5,P
1455327715.3,286046999.7,P
1455327735.1,286047000.8,N
1455327755.9,286047000.5,N
1455327775.7,286046999.0,N
1455327795.5,286046998.8,N
1455327815.4,286047000.6,N
1455327835.2,286047002.8,N
1455327855.0,286046999.9,N
1455327855.9,286046999.9,N
1455327875.8,286047002.4,N
1455327895.6,286047002.8,N
1455327915.5,286047000.4,N
1455327935.3,286047002.3,N
1455327955.1,286047000.0,N
1455327975.9,286046999.9,N
1455327995.7,286046999.8,N
1455328015.5,286047000.1,N
1455328035.4,286047000.2,N
1455328055.2,286047001.1,N
1455328075.0,286046996.7,N
1455328076.0,286046996.7,N
1455328095.8,286046998.8,N
1455328115.6,286046998.4,N
1455328135.5,286046998.7,N
1455328155.3,286047001.0,N
1455328175.1,286047002.4,N
1455328195.9,286047002.6,N
1455328215.7,286047002.6,N
1455328235.5,286047002.2,N
1455328255.4,286046999.7,N
1455328275.2,286047002.7,N
1455328295.1,286047001.3,N
1455328296.0,286047001.3,N
1455328315.8,286047003.8,N
1455328335.6,286047003.3,N
1455328355.5,286047005.0,N
1455328375.3,286047005.7,N
1455328395.2,286047006.4,Y
1455328415.9,286047006.9,P
1455328435.7,286047005.1,N
1455328455.6,286047005.0,N
1455328475.4,286047006.3,N
1455328495.2,286047006.2,Y
1455328515.1,286047001.6,P
1455328516.0,286047001.6,N
1455328535.8,286047004.3,N
1455328555.7,286047004.3,N
1455328575.5,286047002.3,N
1455328595.3,286047001.5,N
1455328615.2,286047002.2,N
1455328635.9,286047004.4,Y
1455328655.7,286046999.8,P
1455328675.6,286047002.7,N
1455328695.4,286047001.1,N
1455328715.3,286047000.3,N
1455328735.1,286047001.2,N
1455328736.0,286047001.2,N
1455328755.8,286047001.2,N
1455328775.7,286046997.8,N
1455328795.5,286046996.3,N
